Data for 08/23/2018

Time Sea-Level Adjusted Pressure Absolute Pressure Temperature Relative Humidity Dew Point   
(mb) (inHg) (mb) (inHg) (C) (F) (%) (C) (F)
00:05 1018 30.06 848 25.04 14.3 57.7 57 6 42.7
00:10 1018 30.06 848 25.04 14.3 57.8 57 5.9 42.6
00:15 1018 30.06 847 25.01 14.3 57.8 57 6 42.8
00:20 1018 30.06 847 25.01 14.4 57.9 57 6 42.8
00:25 1018 30.06 847 25.01 14.3 57.7 57 5.9 42.7
00:30 1018 30.06 847 25.01 14.2 57.5 58 6.1 42.9
00:35 1018 30.06 847 25.01 14 57.1 58 5.9 42.6
00:40 1018 30.06 847 25.01 13.7 56.7 59 5.9 42.7
00:45 1018 30.06 847 25.01 13.5 56.4 59 5.8 42.4
00:50 1018 30.06 847 25.01 13.4 56.2 60 6 42.7
00:55 1018 30.06 847 25.01 13.3 55.9 61 6 42.8
01:00 1018 30.06 847 25.01 13.2 55.7 61 5.8 42.4
01:05 1018 30.06 847 25.01 13.2 55.7 61 5.8 42.5
01:10 1018 30.06 847 25.01 13.1 55.7 61 5.8 42.5
01:15 1018 30.06 847 25.01 13.1 55.6 62 6 42.7
01:20 1018 30.06 847 25.01 13 55.4 61 5.7 42.3
01:25 1018 30.06 847 25.01 13.3 55.9 61 5.9 42.5
01:30 1018 30.06 847 25.01 13.2 55.7 61 5.9 42.5
01:35 1018 30.06 847 25.01 13 55.4 62 6 42.8
01:40 1018 30.06 847 25.01 12.9 55.3 62 5.9 42.6
01:45 1018 30.06 847 25.01 12.8 55.1 62 5.9 42.6
01:50 1018 30.06 847 25.01 12.8 55 63 5.9 42.6
01:55 1018 30.06 847 25.01 12.7 54.9 61 5.6 42
02:00 1018 30.06 847 25.01 12.8 55 61 5.5 42
02:05 1018 30.06 847 25.01 12.8 55 61 5.6 42
02:10 1018 30.06 847 25.01 12.7 54.9 62 5.7 42.3
02:15 1018 30.06 847 25.01 12.5 54.4 64 5.9 42.6
02:20 1018 30.06 847 25.01 12.3 54.1 64 5.7 42.3
02:25 1018 30.06 847 25.01 12.2 54 64 5.7 42.3
02:30 1018 30.06 847 25.01 12.3 54.1 63 5.6 42
02:35 1018 30.06 847 25.01 12.4 54.3 62 5.4 41.7
02:40 1018 30.06 847 25.01 12.4 54.4 62 5.5 42
02:45 1018 30.06 847 25.01 12.4 54.3 62 5.4 41.7
02:50 1018 30.06 847 25.01 12.4 54.3 62 5.4 41.7
02:55 1018 30.06 847 25.01 12.2 54 63 5.5 41.9
03:00 1018 30.06 847 25.01 12.1 53.7 64 5.5 41.9
03:05 1018 30.06 847 25.01 12 53.5 65 5.6 42
03:10 1018 30.06 847 25.01 11.8 53.2 66 5.6 42.2
03:15 1018 30.06 847 25.01 11.7 53.1 66 5.6 42
03:20 1018 30.06 847 25.01 11.7 53.1 66 5.7 42.2
03:25 1018 30.06 847 25.01 11.7 53 65 5.5 41.8
03:30 1018 30.06 847 25.01 11.5 52.6 66 5.5 41.9
03:35 1018 30.06 847 25.01 11.2 52.2 68 5.5 42
03:40 1018 30.06 847 25.01 11.1 52 67 5.3 41.6
03:45 1018 30.06 847 25.01 11 51.9 67 5.3 41.5
03:50 1018 30.06 847 25.01 10.9 51.5 69 5.4 41.7
03:55 1018 30.06 847 25.01 10.5 51 69 5.1 41.2
04:00 1018 30.06 847 25.01 10.5 50.9 68 4.9 40.8
04:05 1017 30.03 847 25.01 10.6 51.1 67 4.9 40.8
04:10 1017 30.03 847 25.01 10.6 51.1 67 4.8 40.6
04:15 1017 30.03 847 25.01 10.5 50.9 67 4.8 40.6
04:20 1017 30.03 847 25.01 10.5 50.9 67 4.8 40.6
04:25 1017 30.03 847 25.01 10.5 50.8 67 4.7 40.4
04:30 1018 30.06 847 25.01 10.2 50.4 67 4.5 40.1
04:35 1017 30.03 847 25.01 10.3 50.5 65 4 39.2
04:40 1017 30.03 847 25.01 10.7 51.2 64 4.1 39.3
04:45 1018 30.06 847 25.01 11 51.7 61 3.7 38.7
04:50 1017 30.03 847 25.01 11.4 52.5 59 3.8 38.8
04:55 1018 30.06 847 25.01 11.5 52.7 60 4 39.3
05:00 1018 30.06 847 25.01 11.5 52.6 59 3.8 38.8
05:05 1018 30.06 847 25.01 11.4 52.6 60 4 39.1
05:10 1018 30.06 847 25.01 11.2 52.2 61 4 39.3
05:15 1018 30.06 847 25.01 11.2 52.2 60 3.8 38.8
05:20 1018 30.06 847 25.01 11.4 52.6 60 4 39.2
05:25 1018 30.06 847 25.01 11.5 52.7 61 4.2 39.6
05:30 1018 30.06 847 25.01 11.4 52.4 60 3.9 39
05:35 1018 30.06 847 25.01 11.5 52.6 60 4.1 39.4
05:40 1018 30.06 847 25.01 11.3 52.4 61 4.2 39.6
05:45 1018 30.06 847 25.01 11.1 51.9 61 4 39.2
05:50 1018 30.06 847 25.01 11.3 52.3 61 4.1 39.3
05:55 1018 30.06 847 25.01 11.1 52.1 64 4.7 40.5
06:00 1018 30.06 847 25.01 10.7 51.2 65 4.4 39.9
06:05 1018 30.06 847 25.01 10.8 51.5 64 4.3 39.8
06:10 1018 30.06 847 25.01 11.2 52.2 60 3.8 38.8
06:15 1018 30.06 847 25.01 11.6 52.9 60 4.1 39.3
06:20 1018 30.06 847 25.01 11.7 53.1 60 4.3 39.7
06:25 1018 30.06 847 25.01 11.6 52.9 62 4.6 40.3
06:30 1018 30.06 847 25.01 11.4 52.6 64 5 40.9
06:35 1018 30.06 847 25.01 11.1 52 65 4.9 40.8
06:40 1018 30.06 847 25.01 10.8 51.4 63 4 39.2
06:45 1018 30.06 847 25.01 11.2 52.1 62 4.3 39.7
06:50 1018 30.06 847 25.01 11.4 52.6 63 4.7 40.4
06:55 1018 30.06 847 25.01 11 51.8 66 5 41
07:00 1018 30.06 847 25.01 10.7 51.3 67 4.8 40.6
07:05 1018 30.06 847 25.01 10.7 51.3 67 4.9 40.8
07:10 1018 30.06 847 25.01 10.9 51.6 67 5.1 41.1
07:15 1018 30.06 847 25.01 11.1 52 63 4.5 40
07:20 1018 30.06 847 25.01 11.5 52.7 60 4 39.3
07:25 1018 30.06 847 25.01 12 53.7 58 4 39.1
07:30 1018 30.06 847 25.01 12.5 54.5 58 4.6 40.3
07:35 1018 30.06 847 25.01 12.3 54.1 61 5.1 41.2
07:40 1018 30.06 847 25.01 12.1 53.8 62 5.1 41.1
07:45 1018 30.06 847 25.01 12.2 54 64 5.6 42
07:50 1018 30.06 847 25.01 12.1 53.7 67 6.2 43.2
07:55 1018 30.06 847 25.01 11.3 52.4 71 6.2 43.1
08:00 1018 30.06 848 25.04 11 51.8 67 5.2 41.4
08:05 1018 30.06 848 25.04 11.3 52.3 66 5.2 41.4
08:10 1018 30.06 848 25.04 11.5 52.8 67 5.7 42.3
08:15 1018 30.06 848 25.04 11.6 53 62 4.8 40.6
08:20 1018 30.06 848 25.04 11.9 53.3 61 4.6 40.3
08:25 1018 30.06 848 25.04 12.2 54 60 4.6 40.3
08:30 1018 30.06 848 25.04 12.6 54.7 58 4.6 40.4
08:35 1018 30.06 848 25.04 13.1 55.6 56 4.5 40.2
08:40 1018 30.06 848 25.04 13.9 57 54 4.8 40.7
08:45 1018 30.06 848 25.04 14.7 58.4 51 4.7 40.5
08:50 1018 30.06 848 25.04 15 59 49 4.5 40.1
08:55 1018 30.06 848 25.04 15.2 59.4 49 4.6 40.3
09:00 1018 30.06 848 25.04 15.4 59.6 47 4.2 39.6
09:05 1018 30.06 848 25.04 15.5 59.9 49 5 41
09:10 1018 30.06 848 25.04 15.6 60 51 5.6 42
09:15 1018 30.06 848 25.04 15.5 59.9 50 5.2 41.4
09:20 1018 30.06 847 25.01 15.6 60 51 5.5 41.9
09:25 1018 30.06 847 25.01 15.7 60.3 50 5.4 41.7
09:30 1018 30.06 847 25.01 16.5 61.6 46 5 41
09:35 1018 30.06 847 25.01 16.9 62.5 45 5.1 41.2
09:40 1018 30.06 847 25.01 17.3 63.1 44 5 41.1
09:45 1018 30.06 847 25.01 17.6 63.6 43 4.8 40.7
09:50 1018 30.06 847 25.01 18 64.3 40 4.4 39.9
09:55 1018 30.06 847 25.01 18.4 65.1 42 5.4 41.7
10:00 1018 30.06 847 25.01 18.9 66 39 4.9 40.7
10:05 1018 30.06 847 25.01 18.8 65.9 37 3.9 39.1
10:10 1018 30.06 847 25.01 18.6 65.5 40 4.8 40.6
10:15 1018 30.06 847 25.01 18.8 65.8 39 4.6 40.4
10:20 1018 30.06 847 25.01 19.4 66.9 37 4.5 40.1
10:25 1018 30.06 847 25.01 19.5 67.2 37 4.6 40.3
10:30 1018 30.06 847 25.01 19.2 66.6 36 3.8 38.9
10:35 1018 30.06 847 25.01 19.1 66.4 38 4.7 40.4
10:40 1018 30.06 847 25.01 19 66.1 37 4.3 39.7
10:45 1018 30.06 847 25.01 19 66.1 37 3.9 39.1
10:50 1018 30.06 847 25.01 19.6 67.2 34 3.6 38.4
10:55 1018 30.06 847 25.01 19.6 67.3 36 4.1 39.3
11:00 1018 30.06 847 25.01 19.8 67.7 36 4.4 39.9
11:05 1018 30.06 847 25.01 19.6 67.3 36 4.3 39.7
11:10 1018 30.06 847 25.01 19.2 66.6 37 4.3 39.8
11:15 1018 30.06 847 25.01 19.2 66.5 37 4.2 39.6
11:20 1018 30.06 847 25.01 19.5 67.1 36 4.2 39.5
11:25 1018 30.06 847 25.01 19.8 67.7 36 4.5 40.1
11:30 1018 30.06 847 25.01 20.5 68.9 32 3.5 38.2
11:35 1018 30.06 847 25.01 20.9 69.6 32 3.6 38.4
11:40 1018 30.06 847 25.01 21.3 70.3 32 4.2 39.5
11:45 1018 30.06 847 25.01 21.8 71.3 31 4.1 39.4
11:50 1018 30.06 847 25.01 22 71.6 31 4.1 39.4
11:55 1018 30.06 847 25.01 21.9 71.3 31 4 39.3
12:00 1018 30.06 847 25.01 21.9 71.4 30 3.6 38.4
12:05 1018 30.06 847 25.01 22 71.7 29 3.5 38.4
12:10 1018 30.06 847 25.01 21.6 71 30 3.5 38.2
12:15 1018 30.06 847 25.01 21.6 70.9 30 3.4 38.1
12:20 1018 30.06 847 25.01 22.1 71.7 29 3.6 38.5
12:25 1018 30.06 847 25.01 22 71.6 30 4 39.2
12:30 1018 30.06 847 25.01 22.1 71.8 28 3.1 37.5
12:35 1018 30.06 847 25.01 22.6 72.6 28 3.3 38
12:40 1018 30.06 847 25.01 22.7 72.9 27 3.1 37.6
12:45 1018 30.06 847 25.01 22.5 72.5 28 3.3 37.9
12:50 1018 30.06 847 25.01 22.5 72.5 29 3.7 38.6
12:55 1018 30.06 847 25.01 22.9 73.3 25 2.2 36
13:00 1018 30.06 847 25.01 23.1 73.6 24 1.5 34.7
13:05 1018 30.06 847 25.01 23 73.5 25 2.4 36.3
13:10 1018 30.06 847 25.01 23.3 73.9 24 1.9 35.4
13:15 1018 30.06 847 25.01 23.8 74.8 24 2.2 36
13:20 1018 30.06 847 25.01 23.8 74.8 24 1.9 35.5
13:25 1018 30.06 847 25.01 23.8 74.9 23 1.8 35.2
13:30 1018 30.06 847 25.01 24 75.2 23 1.9 35.4
13:35 1018 30.06 847 25.01 24.3 75.7 23 1.8 35.3
13:40 1018 30.06 847 25.01 24.3 75.8 23 2.1 35.9
13:45 1017 30.03 847 25.01 23.9 75 24 2.1 35.7
13:50 1017 30.03 847 25.01 24.1 75.4 23 2 35.6
13:55 1017 30.03 847 25.01 24.4 75.9 22 1.7 35.1
14:00 1017 30.03 847 25.01 24.7 76.4 21 1.4 34.6
14:05 1018 30.06 847 25.01 24.6 76.3 22 1.6 34.9
14:10 1018 30.06 847 25.01 24.7 76.5 22 1.7 35.1
14:15 1018 30.06 847 25.01 24.7 76.4 22 1.9 35.5
14:20 1018 30.06 847 25.01 24.7 76.5 22 1.7 35.1
14:25 1017 30.03 847 25.01 25.2 77.4 22 2 35.6
14:30 1017 30.03 847 25.01 25.4 77.6 20 1.3 34.3
14:35 1017 30.03 847 25.01 25 76.9 21 1.5 34.7
14:40 1017 30.03 847 25.01 24.9 76.7 21 1.4 34.6
14:45 1017 30.03 847 25.01 25 77 20 1 33.8
14:50 1017 30.03 847 25.01 25.2 77.4 20 1.1 34
14:55 1017 30.03 847 25.01 25.2 77.3 20 0.7 33.3
15:00 1017 30.03 846 24.98 25.2 77.4 20 1.1 34
15:05 1017 30.03 846 24.98 25.1 77.1 19 0.4 32.7
15:10 1017 30.03 846 24.98 25 77 21 1.7 35.1
15:15 1017 30.03 846 24.98 25.7 78.2 19 0.8 33.5
15:20 1017 30.03 846 24.98 25.7 78.2 19 0.8 33.5
15:25 1017 30.03 846 24.98 25.6 78.1 19 0.6 33
15:30 1017 30.03 846 24.98 25.8 78.5 20 1.5 34.6
15:35 1017 30.03 846 24.98 25.4 77.7 22 2.1 35.8
15:40 1017 30.03 846 24.98 25.8 78.4 20 1.1 34
15:45 1017 30.03 846 24.98 25.7 78.2 20 1.1 34
15:50 1017 30.03 846 24.98 25.9 78.6 19 0.5 32.9
15:55 1017 30.03 846 24.98 25.9 78.6 21 1.9 35.4
16:00 1017 30.03 846 24.98 25.8 78.4 19 0.8 33.4
16:05 1017 30.03 846 24.98 25.8 78.5 19 0.7 33.2
16:10 1017 30.03 846 24.98 26 78.9 19 1.1 33.9
16:15 1017 30.03 846 24.98 25.9 78.7 20 1.6 34.9
16:20 1017 30.03 846 24.98 26.2 79.1 20 1.5 34.8
16:25 1017 30.03 846 24.98 26.2 79.2 19 1 33.8
16:30 1016 30 846 24.98 26.4 79.6 20 2 35.7
16:35 1016 30 846 24.98 26.7 80 19 1.5 34.7
16:40 1016 30 846 24.98 26.6 79.8 19 1.2 34.1
16:45 1016 30 846 24.98 26.6 79.8 18 0.9 33.7
16:50 1016 30 846 24.98 26.3 79.3 19 0.9 33.6
16:55 1016 30 845 24.95 26.1 79.1 20 1.6 34.9
17:00 1016 30 845 24.95 26.5 79.7 19 1.4 34.5
17:05 1016 30 845 24.95 26.7 80.1 18 0.7 33.3
17:10 1016 30 845 24.95 26.9 80.5 19 1.6 34.9
17:15 1016 30 845 24.95 26.5 79.7 19 1.5 34.8
17:20 1016 30 845 24.95 26.3 79.3 20 1.8 35.2
17:25 1016 30 845 24.95 26.1 78.9 19 1.2 34.1
17:30 1016 30 845 24.95 26 78.9 19 1.1 33.9
17:35 1016 30 845 24.95 26.2 79.2 19 1.3 34.3
17:40 1016 30 845 24.95 26.4 79.6 20 1.9 35.5
17:45 1016 30 845 24.95 26.4 79.6 19 1.5 34.7
17:50 1016 30 845 24.95 26.4 79.6 19 0.9 33.7
17:55 1016 30 845 24.95 26.3 79.3 19 1.2 34.2
18:00 1016 30 845 24.95 26.4 79.4 20 1.9 35.4
18:05 1016 30 845 24.95 26.2 79.1 21 2.1 35.8
18:10 1016 30 845 24.95 26 78.8 20 1.9 35.4
18:15 1016 30 845 24.95 25.8 78.5 19 1 33.8
18:20 1016 30 845 24.95 25.9 78.6 21 2.1 35.7
18:25 1016 30 845 24.95 26 78.7 20 1.6 34.8
18:30 1016 30 845 24.95 25.9 78.7 20 1.4 34.5
18:35 1016 30 845 24.95 25.9 78.6 20 1.5 34.7
18:40 1016 30 845 24.95 25.7 78.2 21 1.9 35.4
18:45 1016 30 845 24.95 25.5 77.9 21 2 35.7
18:50 1016 30 845 24.95 25.3 77.6 20 1.3 34.4
18:55 1016 30 845 24.95 25.3 77.5 21 1.9 35.4
19:00 1016 30 845 24.95 25.2 77.3 22 2.2 36
19:05 1016 30 845 24.95 25 77 23 2.5 36.4
19:10 1016 30 845 24.95 24.9 76.7 22 2.1 35.8
19:15 1016 30 845 24.95 24.7 76.5 25 3.4 38.1
19:20 1016 30 845 24.95 24.7 76.4 24 2.8 37
19:25 1016 30 845 24.95 24.6 76.3 23 2.4 36.3
19:30 1016 30 845 24.95 24.5 76.1 23 2.5 36.4
19:35 1016 30 845 24.95 24.4 76 23 2 35.6
19:40 1016 30 845 24.95 24.4 75.8 25 3 37.5
19:45 1016 30 845 24.95 24 75.1 29 5.2 41.4
19:50 1016 30 845 24.95 23.2 73.8 32 5.9 42.5
19:55 1016 30 845 24.95 22.7 72.9 36 7.1 44.8
20:00 1016 30 845 24.95 22.1 71.7 40 8.1 46.5
20:05 1016 30 845 24.95 21.6 70.9 40 7.6 45.6
20:10 1016 30 845 24.95 21.2 70.1 36 5.8 42.4
20:15 1016 30 845 24.95 20.8 69.5 40 7 44.6
20:20 1016 30 845 24.95 20.5 68.8 41 6.8 44.2
20:25 1016 30 845 24.95 19.9 67.8 40 6.1 43
20:30 1016 30 845 24.95 19.5 67 41 6.2 43.1
20:35 1016 30 845 24.95 19.2 66.5 42 6.1 43
20:40 1016 30 845 24.95 19 66.2 42 6 42.9
20:45 1016 30 845 24.95 18.9 65.9 42 5.9 42.6
20:50 1016 30 845 24.95 18.7 65.6 43 6.1 42.9
20:55 1016 30 845 24.95 18.4 65.2 44 6 42.8
21:00 1016 30 845 24.95 18.2 64.7 44 5.8 42.4
21:05 1016 30 845 24.95 18 64.4 44 5.7 42.3
21:10 1016 30 845 24.95 17.8 64.1 44 5.6 42.2
21:15 1016 30 845 24.95 17.7 63.9 45 5.7 42.3
21:20 1016 30 845 24.95 17.4 63.4 46 5.7 42.3
21:25 1016 30 845 24.95 17.3 63.1 45 5.3 41.5
21:30 1016 30 845 24.95 17.2 63 44 5.1 41.3
21:35 1016 30 845 24.95 17.2 62.9 44 5 41
21:40 1016 30 845 24.95 17.1 62.7 44 4.9 40.9
21:45 1016 30 845 24.95 17 62.6 44 4.8 40.7
21:50 1016 30 845 24.95 16.9 62.4 43 4.5 40.1
21:55 1016 30 845 24.95 16.8 62.2 45 4.8 40.6
22:00 1016 30 845 24.95 16.6 61.8 46 4.9 40.9
22:05 1016 30 845 24.95 16.3 61.4 47 5 41.1
22:10 1016 30 845 24.95 16.2 61.1 47 4.8 40.7
22:15 1016 30 845 24.95 16.2 61.1 46 4.6 40.3
22:20 1016 30 845 24.95 16.1 61 46 4.6 40.3
22:25 1016 30 845 24.95 16.1 61 45 4.2 39.6
22:30 1016 30 845 24.95 16.2 61.2 45 4.6 40.2
22:35 1016 30 845 24.95 15.9 60.6 48 4.9 40.8
22:40 1016 30 845 24.95 15.6 60 48 4.8 40.6
22:45 1016 30 845 24.95 15.7 60.2 45 3.8 38.9
22:50 1016 30 845 24.95 16 60.8 43 3.4 38.1
22:55 1016 30 845 24.95 16.2 61.2 45 4.5 40.2
23:00 1016 30 845 24.95 16.1 61 47 4.8 40.6
23:05 1016 30 845 24.95 15.9 60.6 47 4.7 40.5
23:10 1016 30 845 24.95 15.7 60.2 48 4.8 40.6
23:15 1016 30 845 24.95 15.4 59.7 47 4.2 39.6
23:20 1016 30 845 24.95 15.4 59.8 48 4.6 40.2
23:25 1016 30 845 24.95 15.2 59.4 48 4.3 39.8
23:30 1016 30 845 24.95 14.9 58.8 49 4.3 39.8
23:35 1016 30 845 24.95 14.9 58.9 47 3.9 39
23:40 1016 30 845 24.95 15.1 59.2 45 3.3 37.9
23:45 1016 30 845 24.95 15.4 59.8 45 3.8 38.8
23:50 1016 30 845 24.95 15.3 59.5 43 2.9 37.2
23:55 1016 30 845 24.95 15.7 60.3 43 3.1 37.7
24:00 1016 30 845 24.95 15.6 60.1 46 4.1 39.3